Total_Precipitation_Accumulation
0.03 0.04 0.05 0.06 0.09 0.09 0.09 0.12 0.15 0.18 0.17 0.19 0.29 0.44 0.62 0.76 0.80 1.03 1.25 1.32 1.38 1.58 2.10 2.55 2.70 2.81 3.20 3.51 3.73 3.64 3.85 4.28 4.56 4.95 4.99 5.22 5.67 5.99 6.07 6.11 6.08 5.97 5.91 5.96
0.06 0.06 0.05 0.05 0.06 0.06 0.06 0.11 0.14 0.17 0.18 0.20 0.35 0.57 0.65 0.76 0.87 1.18 1.43 1.42 1.40 1.58 1.96 2.44 2.69 3.08 3.39 3.51 3.76 3.88 4.03 4.55 5.04 5.61 6.14 6.55 6.98 7.00 7.10 7.02 6.90 6.52 6.34 6.29
0.07 0.05 0.03 0.04 0.04 0.04 0.05 0.07 0.11 0.16 0.21 0.25 0.39 0.71 0.83 0.95 1.06 1.26 1.39 1.35 1.46 1.67 2.00 2.33 2.66 3.04 3.36 3.55 3.80 3.96 4.32 4.95 5.78 6.42 6.96 7.50 7.85 7.59 7.37 7.04 6.86 6.71 6.68 6.64
0.06 0.04 0.04 0.05 0.06 0.05 0.07 0.08 0.08 0.12 0.23 0.37 0.41 0.82 1.16 1.29 1.40 1.36 1.39 1.54 1.69 1.82 1.98 2.24 2.56 2.91 3.22 3.57 3.71 3.93 4.63 5.34 5.99 6.67 7.33 7.90 8.16 8.15 7.95 7.36 6.86 6.48 6.22 5.93
0.06 0.04 0.05 0.06 0.07 0.06 0.08 0.09 0.11 0.14 0.21 0.35 0.42 0.78 1.40 1.70 1.76 1.73 1.76 1.84 1.85 1.83 1.95 2.15 2.42 2.70 2.89 3.28 3.69 3.99 4.70 5.48 6.15 6.96 7.73 8.16 8.32 8.29 7.95 7.19 6.47 5.92 5.54 5.15
0.06 0.06 0.07 0.07 0.06 0.06 0.08 0.11 0.16 0.21 0.30 0.47 0.47 0.77 1.52 1.95 2.11 2.14 2.05 2.06 1.97 1.87 1.84 1.91 2.20 2.40 2.72 3.09 3.56 4.09 4.49 5.17 6.01 6.63 7.16 7.33 7.49 7.45 7.05 6.61 6.09 5.70 5.16 4.64
0.08 0.09 0.08 0.08 0.07 0.07 0.09 0.21 0.43 0.59 0.65 0.60 0.46 0.78 1.52 1.84 1.80 1.88 1.89 1.94 1.92 1.75 1.78 2.03 2.32 2.30 2.62 3.01 3.47 3.99 4.43 4.93 5.57 6.13 6.55 6.73 6.87 6.78 6.29 5.84 5.41 4.96 4.41 3.99
0.17 0.14 0.09 0.07 0.08 0.09 0.10 0.20 0.49 0.74 0.77 0.77 0.74 1.19 1.76 1.85 1.70 1.54 1.58 1.72 1.85 1.85 1.86 1.99 2.16 2.29 2.63 2.92 3.22 3.61 3.96 4.40 4.70 5.02 5.50 5.74 5.88 5.69 5.33 4.89 4.36 4.02 3.67 3.33
0.25 0.21 0.09 0.07 0.08 0.10 0.13 0.18 0.27 0.38 0.46 0.78 1.19 1.55 1.95 1.95 1.85 1.66 1.56 1.64 1.77 1.77 1.83 2.02 2.23 2.43 2.64 2.99 3.45 3.62 3.61 3.85 4.12 4.43 4.64 4.70 4.75 4.63 4.39 4.12 3.77 3.39 3.07 2.78
0.23 0.27 0.13 0.08 0.08 0.11 0.12 0.16 0.23 0.39 0.73 1.03 1.36 1.98 2.39 2.49 2.44 2.25 1.85 1.75 1.71 1.80 1.90 2.04 2.18 2.40 2.51 2.64 3.01 3.31 3.39 3.49 3.58 3.70 3.75 3.69 3.84 3.76 3.69 3.52 3.26 2.95 2.74 2.50
0.25 0.31 0.21 0.13 0.13 0.16 0.17 0.19 0.25 0.40 0.55 1.01 1.51 2.22 2.44 2.76 2.88 2.74 2.33 2.18 2.16 2.20 2.11 2.10 2.08 2.14 2.33 2.46 2.63 2.92 3.17 3.24 3.28 3.38 3.37 3.27 3.39 3.40 3.42 3.28 3.07 2.92 2.84 2.70
0.29 0.35 0.34 0.22 0.18 0.15 0.17 0.22 0.34 0.63 0.69 0.78 1.35 2.42 2.67 2.83 2.77 2.53 2.41 2.32 2.18 2.07 1.93 1.89 1.87 1.92 2.05 2.29 2.57 2.82 3.01 2.95 2.96 3.05 3.20 3.31 3.37 3.31 3.22 3.00 2.86 2.75 2.60 2.44
0.32 0.49 0.74 0.71 0.56 0.33 0.25 0.25 0.32 0.44 0.66 0.87 1.49 2.70 3.11 3.02 2.87 2.55 2.51 2.48 2.34 2.21 2.01 1.90 1.85 1.92 2.01 2.09 2.26 2.51 2.74 2.83 2.78 2.79 2.81 2.98 3.05 2.99 2.93 2.84 2.73 2.61 2.45 2.37
0.34 0.50 0.88 1.38 1.11 0.68 0.46 0.35 0.39 0.58 0.94 1.11 1.46 2.10 2.48 2.62 2.67 2.65 2.78 2.84 2.65 2.39 2.18 2.00 1.96 1.93 1.94 2.02 2.08 2.17 2.34 2.52 2.67 2.74 2.90 2.95 2.90 2.80 2.73 2.59 2.41 2.29 2.21 2.23
0.41 0.59 0.56 0.59 0.58 0.60 0.63 0.55 0.52 0.65 0.79 1.22 1.60 2.03 2.43 2.57 2.56 2.55 2.74 2.62 2.35 2.19 2.06 1.99 2.00 2.07 2.05 2.00 2.06 2.12 2.29 2.34 2.55 2.69 2.70 2.68 2.64 2.59 2.55 2.48 2.33 2.19 2.07 1.97
0.49 0.65 0.65 0.66 0.55 0.63 0.67 0.66 0.69 0.79 0.94 1.25 1.64 2.22 2.52 2.56 2.54 2.54 2.62 2.59 2.39 2.12 1.95 1.95 1.92 2.02 1.94 1.87 1.87 1.92 2.12 2.17 2.26 2.38 2.41 2.38 2.37 2.49 2.52 2.48 2.35 2.21 2.07 1.95
0.63 0.87 1.05 0.98 0.65 0.90 1.25 0.98 1.01 1.13 1.22 1.46 1.93 2.18 2.27 2.40 2.48 2.52 2.59 2.67 2.54 2.28 2.13 2.16 2.24 2.24 2.07 1.92 1.86 1.94 2.06 2.15 2.21 2.23 2.17 2.23 2.25 2.24 2.30 2.21 2.11 2.10 2.10 1.93
0.68 1.02 1.15 1.08 1.24 1.85 1.63 0.98 1.04 1.28 1.42 1.40 1.52 1.66 1.87 2.07 2.20 2.37 2.54 2.71 2.70 2.57 2.53 2.55 2.54 2.32 2.12 2.03 1.97 2.02 2.03 2.09 2.22 2.16 2.01 1.97 2.00 1.97 2.00 2.06 2.05 2.04 2.03 1.94
0.54 0.98 1.32 1.49 1.84 2.03 1.73 1.10 1.05 1.50 1.90 1.54 1.51 1.53 1.56 1.59 1.81 2.28 2.35 2.44 2.60 2.56 2.58 2.55 2.50 2.34 2.11 1.99 1.93 1.92 1.98 1.95 1.97 1.88 1.82 1.74 1.73 1.81 1.86 1.88 1.98 2.00 1.93 1.88
0.57 0.87 1.48 1.81 2.28 2.60 2.24 1.17 0.88 1.46 2.48 1.83 1.59 1.61 1.69 1.90 2.25 2.23 1.99 1.98 2.08 2.12 2.16 2.25 2.28 2.21 2.04 1.89 1.83 1.86 1.89 1.86 1.83 1.81 1.79 1.68 1.65 1.70 1.74 1.76 1.85 1.83 1.84 1.85
1.07 1.22 1.52 1.84 2.33 2.51 1.63 1.04 1.15 2.42 2.93 2.04 1.72 1.72 1.88 2.11 2.20 1.82 1.59 1.62 1.68 1.85 1.89 1.94 2.14 2.17 1.96 1.79 1.77 1.82 1.81 1.77 1.63 1.65 1.74 1.76 1.73 1.70 1.72 1.74 1.78 1.78 1.77 1.83
1.34 1.56 1.68 1.91 2.48 2.66 1.45 1.22 1.86 2.36 1.88 1.74 1.70 1.66 1.69 1.61 1.50 1.43 1.38 1.39 1.38 1.59 1.77 1.82 1.97 1.89 1.75 1.71 1.83 1.86 1.80 1.66 1.60 1.66 1.81 1.82 1.83 1.69 1.64 1.84 1.89 1.82 1.80 1.77
1.25 1.46 1.83 2.14 2.47 2.05 1.36 1.37 1.52 1.54 1.58 1.49 1.47 1.35 1.27 1.29 1.29 1.32 1.38 1.42 1.40 1.50 1.64 1.71 1.77 1.72 1.65 1.67 1.79 1.89 1.80 1.65 1.70 1.83 1.90 1.93 1.83 1.82 1.79 1.86 1.90 1.82 1.80 1.72
1.21 0.97 1.28 1.72 1.73 1.38 1.20 1.17 1.18 1.22 1.35 1.31 1.24 1.23 1.10 1.17 1.24 1.32 1.38 1.48 1.47 1.47 1.53 1.62 1.69 1.63 1.57 1.55 1.55 1.62 1.58 1.55 1.71 1.91 1.90 1.92 1.92 1.90 1.87 1.86 1.78 1.72 1.68 1.63
1.20 1.20 1.47 1.75 1.55 1.32 1.14 1.00 1.00 1.10 1.11 1.11 1.16 1.23 1.19 1.22 1.30 1.28 1.24 1.31 1.39 1.41 1.46 1.52 1.60 1.63 1.50 1.40 1.37 1.38 1.46 1.59 1.78 1.82 1.77 1.78 1.80 1.81 1.80 1.68 1.59 1.59 1.52 1.40
1.21 1.42 1.71 1.80 1.50 1.56 1.39 1.04 0.95 1.15 1.25 1.15 1.14 1.19 1.14 1.13 1.20 1.25 1.31 1.31 1.36 1.40 1.43 1.52 1.50 1.47 1.38 1.26 1.22 1.26 1.36 1.46 1.63 1.63 1.59 1.59 1.67 1.70 1.63 1.59 1.46 1.36 1.26 1.27